C28 SCTB-SCTB

Flight info

Callsign C28
Flight time 0h 30m
Altitude FL070
Route
Aircraft AS50/L-S/N

Departure

Time 2026-05-05 00:09
Airport Eulogio Sánchez Airport (SCTB)

Arrival

Time 2026-05-05 00:39
Airport Eulogio Sánchez Airport (SCTB)
Time Latitude Longitude Altitude Speed Heading
2026-05-04 23:54 -33.45864 -70.54815 2156 ft 0 kts 17°
2026-05-05 00:08 -33.45863 -70.54817 2153 ft 3 kts 30°
2026-05-05 00:08 -33.45830 -70.54800 2190 ft 9 kts 88°
2026-05-05 00:08 -33.45863 -70.54746 2209 ft 13 kts 184°
2026-05-05 00:08 -33.46047 -70.54775 2269 ft 49 kts 195°
2026-05-05 00:09 -33.46441 -70.54902 2431 ft 66 kts 199°
2026-05-05 00:09 -33.46914 -70.55057 2598 ft 77 kts 194°
2026-05-05 00:09 -33.47459 -70.55219 2752 ft 84 kts 193°
2026-05-05 00:09 -33.47984 -70.55379 3000 ft 79 kts 193°
2026-05-05 00:10 -33.48545 -70.55538 3113 ft 91 kts 193°
2026-05-05 00:10 -33.49228 -70.55776 2970 ft 115 kts 199°
2026-05-05 00:10 -33.49969 -70.56067 3063 ft 108 kts 200°
2026-05-05 00:10 -33.50652 -70.56418 3095 ft 113 kts 201°
2026-05-05 00:11 -33.51362 -70.56742 3201 ft 107 kts 202°
2026-05-05 00:11 -33.52049 -70.57047 3334 ft 97 kts 197°
2026-05-05 00:11 -33.52687 -70.57244 3486 ft 95 kts 193°
2026-05-05 00:11 -33.53360 -70.57496 3454 ft 108 kts 199°
2026-05-05 00:12 -33.54090 -70.57834 3408 ft 114 kts 200°
2026-05-05 00:12 -33.54838 -70.58203 3339 ft 120 kts 201°
2026-05-05 00:12 -33.55616 -70.58620 3255 ft 123 kts 202°
2026-05-05 00:12 -33.56428 -70.58931 3183 ft 123 kts 183°
2026-05-05 00:13 -33.57277 -70.58759 3054 ft 126 kts 167°
2026-05-05 00:13 -33.58149 -70.58789 2958 ft 128 kts 191°
2026-05-05 00:13 -33.58949 -70.59159 2938 ft 124 kts 201°
2026-05-05 00:13 -33.59777 -70.59512 2808 ft 129 kts 198°
2026-05-05 00:14 -33.60627 -70.59832 2752 ft 124 kts 194°
2026-05-05 00:14 -33.61446 -70.60000 2785 ft 117 kts 181°
2026-05-05 00:14 -33.62172 -70.60275 2851 ft 114 kts 219°
2026-05-05 00:14 -33.62570 -70.61134 2685 ft 127 kts 256°
2026-05-05 00:15 -33.62645 -70.62203 2579 ft 128 kts 266°
2026-05-05 00:15 -33.62697 -70.63231 2612 ft 120 kts 266°
2026-05-05 00:15 -33.62771 -70.64205 2658 ft 116 kts 263°
2026-05-05 00:15 -33.62734 -70.65123 2788 ft 108 kts 285°
2026-05-05 00:16 -33.62499 -70.65983 2851 ft 109 kts 290°
2026-05-05 00:16 -33.62205 -70.66816 2916 ft 110 kts 298°
2026-05-05 00:16 -33.61709 -70.67535 2893 ft 116 kts 322°
2026-05-05 00:16 -33.60991 -70.67916 2945 ft 113 kts 353°
2026-05-05 00:17 -33.60205 -70.67809 2954 ft 112 kts 14°
2026-05-05 00:17 -33.59443 -70.67567 2993 ft 109 kts 25°
2026-05-05 00:17 -33.59016 -70.66905 3035 ft 108 kts 84°
2026-05-05 00:17 -33.59266 -70.65993 2839 ft 122 kts 129°
2026-05-05 00:18 -33.60055 -70.65653 2677 ft 128 kts 179°
2026-05-05 00:18 -33.60752 -70.66098 2788 ft 117 kts 234°
2026-05-05 00:18 -33.60838 -70.67115 2627 ft 127 kts 284°
2026-05-05 00:18 -33.60312 -70.67895 2589 ft 125 kts 330°
2026-05-05 00:19 -33.59475 -70.68008 2555 ft 121 kts 10°
2026-05-05 00:19 -33.58702 -70.67743 2686 ft 107 kts 20°
2026-05-05 00:19 -33.57974 -70.67531 2690 ft 110 kts 14°
2026-05-05 00:19 -33.57197 -70.67317 2533 ft 119 kts 16°
2026-05-05 00:20 -33.56536 -70.66773 2503 ft 117 kts 57°
2026-05-05 00:20 -33.56419 -70.65805 2385 ft 121 kts 98°
2026-05-05 00:20 -33.56829 -70.65047 2506 ft 105 kts 152°
2026-05-05 00:20 -33.57401 -70.65258 2692 ft 96 kts 238°
2026-05-05 00:21 -33.57269 -70.66089 2608 ft 111 kts 310°
2026-05-05 00:21 -33.56577 -70.66290 2663 ft 105 kts 19°
2026-05-05 00:21 -33.56209 -70.65585 2597 ft 110 kts 91°
2026-05-05 00:21 -33.56671 -70.65054 2683 ft 104 kts 180°
2026-05-05 00:22 -33.57374 -70.65447 2590 ft 114 kts 212°
2026-05-05 00:22 -33.57930 -70.66086 2630 ft 112 kts 236°
2026-05-05 00:22 -33.58009 -70.67010 2540 ft 122 kts 284°
2026-05-05 00:22 -33.57857 -70.67968 2566 ft 114 kts 252°
2026-05-05 00:23 -33.58487 -70.68483 2515 ft 114 kts 198°
2026-05-05 00:23 -33.59217 -70.68716 2600 ft 106 kts 188°
2026-05-05 00:23 -33.59938 -70.68746 2665 ft 104 kts 175°
2026-05-05 00:23 -33.60573 -70.68409 2688 ft 104 kts 126°
2026-05-05 00:24 -33.60545 -70.67575 2665 ft 109 kts 60°
2026-05-05 00:24 -33.59987 -70.66968 2716 ft 107 kts 27°
2026-05-05 00:24 -33.59285 -70.66714 2781 ft 108 kts 17°
2026-05-05 00:24 -33.58551 -70.66459 2783 ft 111 kts 17°
2026-05-05 00:25 -33.57820 -70.66298 2873 ft 109 kts 12°
2026-05-05 00:25 -33.57061 -70.66098 2807 ft 117 kts 16°
2026-05-05 00:25 -33.56260 -70.65850 2733 ft 122 kts 13°
2026-05-05 00:25 -33.55435 -70.65679 2726 ft 118 kts 10°
2026-05-05 00:26 -33.54614 -70.65527 2669 ft 121 kts 12°
2026-05-05 00:26 -33.53788 -70.65354 2623 ft 120 kts 11°
2026-05-05 00:26 -33.52959 -70.65161 2521 ft 124 kts 11°
2026-05-05 00:26 -33.52114 -70.64991 2474 ft 122 kts 10°
2026-05-05 00:27 -33.51276 -70.64795 2413 ft 122 kts 12°
2026-05-05 00:27 -33.50457 -70.64598 2394 ft 118 kts
2026-05-05 00:27 -33.49656 -70.64615 2425 ft 114 kts 355°
2026-05-05 00:27 -33.48881 -70.64672 2461 ft 112 kts 359°
2026-05-05 00:28 -33.48106 -70.64686 2490 ft 112 kts 360°
2026-05-05 00:28 -33.47342 -70.64665 2523 ft 111 kts
2026-05-05 00:28 -33.46546 -70.64684 2450 ft 116 kts 357°
2026-05-05 00:28 -33.45793 -70.64730 2581 ft 106 kts 356°
2026-05-05 00:29 -33.45068 -70.64797 2650 ft 106 kts 356°
2026-05-05 00:29 -33.44330 -70.64860 2673 ft 108 kts 357°
2026-05-05 00:29 -33.43604 -70.64827 2764 ft 104 kts
2026-05-05 00:29 -33.42853 -70.64736 2652 ft 119 kts
2026-05-05 00:30 -33.42054 -70.64593 2635 ft 117 kts 10°
2026-05-05 00:30 -33.41295 -70.64506 2738 ft 108 kts 359°
2026-05-05 00:30 -33.40545 -70.64459 2773 ft 107 kts
2026-05-05 00:30 -33.39799 -70.64397 2779 ft 109 kts
2026-05-05 00:31 -33.39064 -70.64359 2853 ft 105 kts 354°
2026-05-05 00:31 -33.38467 -70.64806 2895 ft 107 kts 317°
2026-05-05 00:31 -33.37915 -70.65378 2953 ft 107 kts 324°
2026-05-05 00:31 -33.37234 -70.65799 2938 ft 109 kts 344°
2026-05-05 00:32 -33.36482 -70.65890 2938 ft 111 kts
2026-05-05 00:32 -33.35705 -70.65917 2947 ft 112 kts 355°
2026-05-05 00:32 -33.34929 -70.65899 2967 ft 109 kts
2026-05-05 00:32 -33.34186 -70.66048 2926 ft 116 kts 338°
2026-05-05 00:33 -33.33699 -70.66804 2748 ft 124 kts 271°
2026-05-05 00:33 -33.34220 -70.67472 2773 ft 116 kts 195°
2026-05-05 00:33 -33.34995 -70.67585 2841 ft 111 kts 182°
2026-05-05 00:33 -33.35723 -70.67306 2847 ft 111 kts 147°
2026-05-05 00:34 -33.36300 -70.66758 2934 ft 107 kts 137°
2026-05-05 00:34 -33.36862 -70.66149 2915 ft 111 kts 135°
2026-05-05 00:34 -33.37327 -70.65393 2864 ft 116 kts 117°
2026-05-05 00:34 -33.37666 -70.64554 2882 ft 114 kts 112°
2026-05-05 00:35 -33.37997 -70.63690 2867 ft 116 kts 112°
2026-05-05 00:35 -33.38340 -70.62835 2963 ft 110 kts 115°
2026-05-05 00:35 -33.38586 -70.61991 3031 ft 110 kts 101°
2026-05-05 00:35 -33.38767 -70.61139 3147 ft 107 kts 102°
2026-05-05 00:36 -33.38921 -70.60313 3303 ft 99 kts 100°
2026-05-05 00:36 -33.39072 -70.59516 3401 ft 101 kts 102°
2026-05-05 00:36 -33.39259 -70.58725 3519 ft 99 kts 103°
2026-05-05 00:36 -33.39386 -70.57871 3493 ft 108 kts 96°
2026-05-05 00:37 -33.39483 -70.56953 3475 ft 112 kts 93°
2026-05-05 00:37 -33.39543 -70.56007 3438 ft 116 kts 90°
2026-05-05 00:37 -33.39581 -70.55050 3477 ft 113 kts 95°
2026-05-05 00:37 -33.40020 -70.54336 3548 ft 112 kts 147°
2026-05-05 00:38 -33.40742 -70.54017 3547 ft 114 kts 165°
2026-05-05 00:38 -33.41555 -70.53885 3362 ft 124 kts 176°
2026-05-05 00:38 -33.42418 -70.53912 3115 ft 122 kts 185°
2026-05-05 00:38 -33.43225 -70.54041 2869 ft 112 kts 191°
2026-05-05 00:39 -33.43939 -70.54219 2683 ft 99 kts 193°
2026-05-05 00:39 -33.44574 -70.54391 2490 ft 90 kts 194°
2026-05-05 00:39 -33.45168 -70.54543 2292 ft 85 kts 194°
2026-05-05 00:39 -33.45637 -70.54672 2220 ft 48 kts 199°
2026-05-05 00:40 -33.45787 -70.54755 2175 ft 11 kts 206°
2026-05-05 00:40 -33.45838 -70.54800 2168 ft 10 kts 199°
2026-05-05 00:40 -33.45849 -70.54804 2159 ft 0 kts 197°
2026-05-05 00:44 0.00041 0.01397 3 ft 0 kts 360°
2026-05-05 00:45 -33.45864 -70.54815 2129 ft 0 kts 17°